Weather in Masally

Azerbaijan     39˚01′32″N   48˚38′23″E
temp.,
°C
wind,
m/s
gust,
m/s
humid.,
%
clouds,
%
prec.,
mm/h
press.,
hPa
HPBL,
m
28 november, sat
sat2801:00+7˚sw22770 0.0 103429
04:00+6˚nw23713 0.0 103337
07:00+5˚nnw228274 0.0 103334
10:00+7˚n228072 0.0 1033180
13:00+11˚nne216892 0.0 1031552
16:00+11˚ene116996 0.0 1030591
19:00+9˚s0181100 0.1 103023
22:00+8˚nw2384100 0.1 103032
29 november, sun
sun2901:00+9˚nw247899 0.1 1029178
04:00+9˚nw367399 0.1 1029261
07:00+8˚nw3670100 0.0 1028298
10:00+9˚nnw4667100 0.0 1028442
13:00+11˚nnw3463100 0.0 1027606
16:00+10˚nw1176100 0.4 1026190
19:00+9˚nw2284100 0.7 1027167
22:00+8˚nw3492100 2.7 1027219
30 november, mon
mon3001:00+8˚wnw4691100 1.6 1026255
04:00+8˚nnw4692100 3.6 1026394
07:00+7˚nw2493100 1.1 1025181
10:00+8˚nw2389100 1.4 1026187
13:00+9˚nw2386100 0.1 1025311
16:00+9˚nnw2485100 0.3 1024435
19:00+9˚nw2287100 0.2 102486
22:00+9˚wnw2286100 0.3 102479
1 december, tue
tue101:00+9˚nw2387100 0.1 102496
04:00+9˚nnw3491100 0.3 1023243
07:00+9˚nnw3493100 0.9 1023262
10:00+9˚nw3590100 1.4 1023285
13:00+10˚nnw358799 0.0 1022353
16:00+10˚nnw238799 0.1 1021314
19:00+9˚nw228897 0.0 102380
22:00+9˚nnw128795 0.0 102476
2 december, wed
wed201:00+9˚nnw2286100 0.0 102489
04:00+9˚nnw2385100 0.0 1024119
07:00+9˚nnw248499 0.0 1025143
10:00+10˚nw3480100 0.1 1025220
13:00+10˚nnw3581100 0.1 1024366
16:00+10˚nnw2384100 0.1 1023233
19:00+9˚wnw3380100 0.1 102488
22:00+9˚nw3582100 0.1 1025208